GW1637 Weather Reports


time (UTC)temp
F
wind
direction
speed
knots
gust
knots
rain 1hr
in
rain 24hr
in
rain mn
in
humidity
%
barometer
mb
20240424001516 57 33 1.7 4.3 0.00 0.00 0.00 43 1018.2
20240424001015 57 66 1.7 5.2 0.00 0.00 0.00 43 1018.1
20240424000515 57 7 0.9 6.1 0.00 0.00 0.00 42 1018.7
20240424000013 58 356 4.3 7.0 0.00 0.00 0.00 41 1018.4
20240423235512 58 321 2.6 6.1 0.00 0.00 0.00 41 1018.4
20240423235011 58 331 3.5 7.8 0.00 0.00 0.00 40 1018.5
20240423234510 59 1 4.3 6.1 0.00 0.00 0.00 40 1018.5
20240423234008 59 282 4.3 5.2 0.00 0.00 0.00 39 1018.3
20240423233508 59 346 5.2 8.7 0.00 0.00 0.00 39 1018.2
20240423233007 59 9 4.3 7.0 0.00 0.00 0.00 39 1018.3
20240423232505 59 337 3.5 7.0 0.00 0.00 0.00 39 1018.1
20240423232004 60 307 5.2 7.8 0.00 0.00 0.00 36 1018.0
20240423231504 60 55 7.0 9.6 0.00 0.00 0.00 37 1018.1
20240423231002 60 350 7.0 10.4 0.00 0.00 0.00 37 1018.2
20240423230501 61 324 5.2 7.8 0.00 0.00 0.00 36 1018.1
20240423230000 61 27 5.2 6.1 0.00 0.00 0.00 36 1018.0
20240423225500 60 307 5.2 12.2 0.00 0.00 0.00 36 1017.8
20240423224958 60 345 9.6 12.2 0.00 0.00 0.00 36 1018.2
20240423224457 59 29 7.0 9.6 0.00 0.00 0.00 37 1018.2
20240423223956 59 17 5.2 9.6 0.00 0.00 0.00 38 1018.2
20240423223455 59 24 3.5 7.8 0.00 0.00 0.00 38 1018.0
20240423222955 59 2 5.2 5.2 0.00 0.00 0.00 37 1018.2
20240423222454 59 12 5.2 5.2 0.00 0.00 0.00 38 1018.0
20240423221954 59 74 2.6 5.2 0.00 0.00 0.00 38 1017.8
20240423221452 61 98 8.7 8.7 0.00 0.00 0.00 35 1017.7
20240423220950 60 64 4.3 7.0 0.00 0.00 0.00 35 1017.7
20240423220449 60 92 6.1 6.1 0.00 0.00 0.00 35 1017.8
20240423215949 59 74 3.5 5.2 0.00 0.00 0.00 37 1018.1
20240423215445 58 52 1.7 3.5 0.00 0.00 0.00 36 1018.3
20240423214919 58 31 3.5 5.2 0.00 0.00 0.00 37 1018.3
20240423214419 59 23 1.7 4.3 0.00 0.00 0.00 37 1018.1
20240423213918 59 30 3.5 7.8 0.00 0.00 0.00 36 1018.3
20240423213417 59 349 1.7 6.1 0.00 0.00 0.00 36 1018.4
20240423212917 59 18 4.3 7.8 0.00 0.00 0.00 36 1018.5
20240423212414 60 71 0.0 4.3 0.00 0.00 0.00 34 1018.4
20240423211913 59 327 1.7 8.7 0.00 0.00 0.00 36 1018.5
20240423211411 59 344 3.5 5.2 0.00 0.00 0.00 35 1018.4
20240423210910 57 104 5.2 7.0 0.00 0.00 0.00 36 1018.7
20240423210409 58 96 5.2 7.0 0.00 0.00 0.00 35 1018.5
20240423205908 58 110 3.5 7.8 0.00 0.00 0.00 35 1018.5
20240423205406 58 75 3.5 6.1 0.00 0.00 0.00 37 1018.5
20240423204904 57 64 2.6 4.3 0.00 0.00 0.00 37 1018.9
20240423204403 56 282 0.0 6.1 0.00 0.00 0.00 37 1018.9
20240423203903 56 93 2.6 3.5 0.00 0.00 0.00 38 1018.7
20240423203403 55 94 2.6 4.3 0.00 0.00 0.00 38 1018.8
20240423202902 55 106 2.6 5.2 0.00 0.00 0.00 38 1018.5
20240423202400 56 94 5.2 6.1 0.00 0.00 0.00 38 1018.7
20240423201858 57 61 2.6 3.5 0.00 0.00 0.00 37 1019.0
20240423201357 56 38 2.6 6.1 0.00 0.00 0.00 38 1018.8
20240423200857 56 83 4.3 8.7 0.00 0.00 0.00 37 1018.8
20240423200356 58 93 6.1 7.0 0.00 0.00 0.00 35 1018.7
20240423195854 57 104 4.3 4.3 0.00 0.00 0.00 36 1018.5
20240423195352 56 192 2.6 3.5 0.00 0.00 0.00 36 1018.7
20240423194851 55 98 8.7 8.7 0.00 0.00 0.00 37 1018.8
20240423194347 57 143 4.3 10.4 0.00 0.00 0.00 35 1018.7
20240423193843 58 148 6.1 10.4 0.00 0.00 0.00 35 1018.5
20240423193342 55 73 6.1 7.0 0.00 0.00 0.00 37 1018.5
20240423192841 57 78 8.7 8.7 0.00 0.00 0.00 35 1018.8
20240423192340 57 98 6.1 9.6 0.00 0.00 0.00 35 1018.9
20240423191839 56 156 6.1 11.3 0.00 0.00 0.00 35 1019.0
20240423191338 56 53 5.2 12.2 0.00 0.00 0.00 34 1019.0
20240423190837 57 156 6.1 7.8 0.00 0.00 0.00 35 1018.9
20240423190337 56 109 4.3 7.8 0.00 0.00 0.00 34 1018.9
20240423185835 55 116 4.3 7.8 0.00 0.00 0.00 36 1019.1
20240423185334 55 77 1.7 5.2 0.00 0.00 0.00 34 1019.0
20240423184835 53 40 2.6 6.1 0.00 0.00 0.00 35 1019.4
20240423184333 54 92 5.2 8.7 0.00 0.00 0.00 35 1019.3
20240423183832 54 105 4.3 5.2 0.00 0.00 0.00 37 1019.3
20240423183332 53 90 6.1 9.6 0.00 0.00 0.00 36 1019.5
20240423182831 53 12 5.2 7.8 0.00 0.00 0.00 36 1019.4
20240423182330 54 82 7.8 8.7 0.00 0.00 0.00 36 1019.6
20240423181830 54 38 4.3 7.0 0.00 0.00 0.00 35 1019.4
20240423181330 53 76 8.7 8.7 0.00 0.00 0.00 36 1019.6
20240423180829 54 72 3.5 5.2 0.00 0.00 0.00 36 1019.6
20240423180328 53 98 2.6 4.3 0.00 0.00 0.00 36 1019.3
20240423175826 53 8 1.7 3.5 0.00 0.00 0.00 35 1019.8
20240423175325 52 32 2.6 6.1 0.00 0.00 0.00 36 1019.8
20240423174824 52 97 2.6 7.0 0.00 0.00 0.00 35 1019.7
20240423174323 53 0 0.0 7.0 0.00 0.00 0.00 35 1019.7
20240423173823 53 19 1.7 4.3 0.00 0.00 0.00 35 1019.8
20240423173321 51 49 1.7 7.0 0.00 0.00 0.00 36 1019.7
20240423172821 53 107 4.3 7.0 0.00 0.00 0.00 35 1019.8
20240423172320 53 176 1.7 5.2 0.00 0.00 0.00 35 1020.1
20240423171819 53 82 3.5 8.7 0.00 0.00 0.00 35 1020.0
20240423171317 54 81 1.7 5.2 0.00 0.00 0.00 35 1019.7
20240423170816 52 0 2.6 7.0 0.00 0.00 0.00 35 1019.8
20240423170315 51 101 5.2 7.8 0.00 0.00 0.00 35 1019.6
20240423165813 53 151 6.1 7.0 0.00 0.00 0.00 33 1020.3
20240423165310 54 40 2.6 6.1 0.00 0.00 0.00 33 1019.7
20240423164809 53 97 5.2 9.6 0.00 0.00 0.00 34 1020.1
20240423164309 53 216 2.6 6.1 0.00 0.00 0.00 34 1020.1
20240423163808 51 10 4.3 7.0 0.00 0.00 0.00 36 1020.2
20240423163244 53 120 0.0 2.6 0.00 0.00 0.00 34 1020.2
20240423162743 50 171 2.6 7.0 0.00 0.00 0.00 37 1020.6
20240423162236 52 177 4.3 6.1 0.00 0.00 0.00 35 1020.3
20240423161735 51 148 1.7 2.6 0.00 0.00 0.00 35 1020.3
20240423161234 49 291 2.6 3.5 0.00 0.00 0.00 38 1020.4
20240423160734 50 122 4.3 4.3 0.00 0.00 0.00 38 1020.2
20240423160234 49 18 3.5 5.2 0.00 0.00 0.00 37 1020.3
20240423155734 50 77 6.1 6.1 0.00 0.00 0.00 38 1020.4
20240423155233 50 102 2.6 3.5 0.00 0.00 0.00 37 1020.6
20240423154732 51 88 4.3 5.2 0.00 0.00 0.00 37 1020.6
20240423154230 49 74 2.6 4.3 0.00 0.00 0.00 38 1020.4
20240423153729 49 52 2.6 6.1 0.00 0.00 0.00 37 1020.7
20240423153228 49 64 2.6 2.6 0.00 0.00 0.00 38 1020.6
20240423152726 48 11 2.6 2.6 0.00 0.00 0.00 37 1020.4
20240423152225 48 346 4.3 4.3 0.00 0.00 0.00 38 1020.6
20240423151723 48 275 1.7 5.2 0.00 0.00 0.00 37 1020.6
20240423151222 50 45 2.6 2.6 0.00 0.00 0.00 37 1020.7
20240423150722 50 276 0.9 4.3 0.00 0.00 0.00 36 1020.4
20240423150221 48 354 0.0 2.6 0.00 0.00 0.00 37 1020.9
20240423145719 48 5 0.0 4.3 0.00 0.00 0.00 37 1020.9
20240423145218 48 347 2.6 6.1 0.00 0.00 0.00 38 1020.3
20240423144717 49 78 0.9 4.3 0.00 0.00 0.00 36 1020.9
20240423144216 49 90 1.7 2.6 0.00 0.00 0.00 36 1020.7
20240423143714 47 250 3.5 3.5 0.00 0.00 0.00 38 1020.9
20240423143214 48 244 2.6 5.2 0.00 0.00 0.00 37 1020.9
20240423142713 48 3 4.3 5.2 0.00 0.00 0.00 36 1021.0
20240423142212 46 14 3.5 7.0 0.00 0.00 0.00 38 1021.3
20240423141711 47 0 2.6 4.3 0.00 0.00 0.00 39 1021.1
20240423141209 47 23 0.9 3.5 0.00 0.00 0.00 37 1020.9
20240423140707 49 55 3.5 4.3 0.00 0.00 0.00 36 1020.8
20240423140206 48 348 1.7 2.6 0.00 0.00 0.00 38 1021.0
20240423135705 47 0 0.0 7.0 0.00 0.00 0.00 39 1020.8
20240423135204 47 347 7.0 7.8 0.00 0.00 0.00 38 1021.0
20240423134703 47 342 5.2 11.3 0.00 0.00 0.00 39 1020.8
20240423134203 47 353 5.2 7.0 0.00 0.00 0.00 39 1021.0
20240423133701 46 10 2.6 7.8 0.00 0.00 0.00 39 1020.9
20240423133200 46 331 4.3 7.0 0.00 0.00 0.00 40 1021.1
20240423132700 46 341 4.3 11.3 0.00 0.00 0.00 41 1021.1
20240423132159 45 345 1.7 6.1 0.00 0.00 0.00 42 1021.0
20240423131657 45 13 5.2 9.6 0.00 0.00 0.00 41 1020.9
20240423131155 45 348 4.3 8.7 0.00 0.00 0.00 42 1020.9
20240423130655 45 23 2.6 5.2 0.00 0.00 0.00 42 1020.8
20240423130153 44 318 5.2 9.6 0.00 0.00 0.00 42 1020.6
20240423125653 45 26 1.7 3.5 0.00 0.00 0.00 42 1020.4
20240423125153 45 349 4.3 7.0 0.00 0.00 0.00 42 1020.2
20240423124653 45 357 3.5 4.3 0.00 0.00 0.00 43 1020.3
20240423124153 45 356 1.7 3.5 0.00 0.00 0.00 43 1020.1
20240423123652 44 17 5.2 6.1 0.00 0.00 0.00 43 1020.0
20240423123151 44 4 3.5 7.0 0.00 0.00 0.00 43 1020.0
20240423122652 44 28 1.7 5.2 0.00 0.00 0.00 44 1020.1
20240423122150 44 0 1.7 8.7 0.00 0.00 0.00 43 1019.8
20240423121649 44 357 3.5 8.7 0.00 0.00 0.00 44 1019.7
20240423121149 43 355 2.6 7.0 0.00 0.00 0.00 45 1019.6
20240423120648 43 9 0.0 5.2 0.00 0.00 0.00 45 1019.6
20240423120146 43 275 3.5 7.0 0.00 0.00 0.00 46 1019.4
20240423115646 43 348 4.3 6.1 0.00 0.00 0.00 46 1019.5
20240423115144 43 8 4.3 6.1 0.00 0.00 0.00 45 1019.6
20240423114644 44 335 2.6 7.0 0.00 0.00 0.00 43 1019.3
20240423114143 44 304 4.3 6.1 0.00 0.00 0.00 44 1019.4
20240423113642 44 296 4.3 7.0 0.00 0.00 0.00 44 1019.4
20240423113140 44 321 2.6 7.0 0.00 0.00 0.00 45 1019.3
20240423112638 44 322 1.7 7.0 0.00 0.00 0.00 45 1019.0
20240423112136 44 292 2.6 6.1 0.00 0.00 0.00 46 1019.0
20240423111635 43 35 0.9 2.6 0.00 0.00 0.00 50 1019.1
20240423111135 43 3 0.0 2.6 0.00 0.00 0.00 50 1019.0
20240423110635 43 353 0.9 1.7 0.00 0.00 0.00 50 1018.9
20240423110134 43 291 0.0 1.7 0.00 0.00 0.00 50 1018.5
20240423105633 44 16 0.0 3.5 0.00 0.00 0.00 49 1018.5
20240423105132 44 18 0.0 5.2 0.00 0.00 0.00 49 1018.5
20240423104631 44 19 0.0 1.7 0.00 0.00 0.00 49 1018.5
20240423104130 44 0 2.6 4.3 0.00 0.00 0.00 48 1018.2
20240423103630 44 324 1.7 4.3 0.00 0.00 0.00 48 1018.2
20240423103130 44 315 3.5 4.3 0.00 0.00 0.00 46 1018.0
20240423102628 45 30 3.5 5.2 0.00 0.00 0.00 45 1018.1
20240423102128 45 20 6.1 7.0 0.00 0.00 0.00 45 1017.8
20240423101627 45 45 1.7 7.0 0.00 0.00 0.00 45 1017.8
20240423101127 46 68 1.7 7.8 0.00 0.00 0.00 44 1017.5
20240423100626 46 351 7.8 12.2 0.00 0.00 0.00 43 1017.6
20240423100125 46 356 8.7 11.3 0.00 0.00 0.00 43 1017.7
20240423095625 46 356 6.1 15.6 0.00 0.00 0.00 43 1017.2
20240423095123 46 347 8.7 15.6 0.00 0.00 0.00 45 1017.0
20240423094622 46 357 9.6 11.3 0.00 0.00 0.00 46 1017.2
20240423094120 46 8 5.2 14.8 0.00 0.00 0.00 47 1016.8
20240423093620 46 14 3.5 13.9 0.00 0.00 0.00 48 1016.9
20240423093119 46 343 9.6 11.3 0.00 0.00 0.00 48 1017.0
20240423092619 47 347 0.0 13.9 0.00 0.00 0.00 48 1016.9
20240423092117 47 338 7.8 18.2 0.00 0.00 0.00 49 1016.3
20240423091616 47 326 8.7 14.8 0.00 0.00 0.00 52 1016.3
20240423091115 48 342 8.7 14.8 0.00 0.00 0.00 55 1015.8
20240423090614 48 23 12.2 13.0 0.00 0.00 0.00 57 1015.9
20240423090112 49 24 8.7 15.6 0.00 0.00 0.00 56 1015.8
20240423085610 49 355 11.3 16.5 0.00 0.00 0.00 56 1015.4
20240423085110 50 310 2.6 18.2 0.00 0.00 0.00 55 1015.4
20240423084609 51 347 8.7 19.1 0.00 0.00 0.00 53 1015.0
20240423084107 53 349 13.9 20.0 0.00 0.00 0.00 51 1014.5
20240423083607 58 303 11.3 18.2 0.00 0.00 0.00 40 1013.6
20240423083106 60 280 3.5 11.3 0.00 0.00 0.00 34 1012.9
20240423082604 59 241 5.2 7.0 0.00 0.00 0.00 34 1012.6
20240423082104 59 248 3.5 9.6 0.00 0.00 0.00 34 1012.8
20240423081603 59 298 2.6 5.2 0.00 0.00 0.00 34 1012.6
20240423081103 60 255 7.0 8.7 0.00 0.00 0.00 34 1012.9
20240423080602 60 214 3.5 10.4 0.00 0.00 0.00 33 1012.5
20240423080101 61 249 2.6 12.2 0.00 0.00 0.00 33 1012.6
20240423075600 61 241 5.2 12.2 0.00 0.00 0.00 32 1012.9
20240423075059 61 274 12.2 13.9 0.00 0.00 0.00 32 1012.6
20240423074558 63 249 7.8 22.6 0.00 0.00 0.00 30 1013.0
20240423074057 62 241 8.7 12.2 0.00 0.00 0.00 30 1012.6
20240423073557 62 280 8.7 13.0 0.00 0.00 0.00 31 1012.9
20240423073056 63 292 2.6 19.1 0.00 0.00 0.00 30 1013.1
20240423072555 63 272 4.3 13.0 0.00 0.00 0.00 30 1013.1
20240423072054 63 272 5.2 17.4 0.00 0.00 0.00 29 1013.2
20240423071552 61 200 4.3 12.2 0.00 0.00 0.00 32 1012.6
20240423071052 60 243 3.5 8.7 0.00 0.00 0.00 33 1013.0
20240423070549 60 218 1.7 7.0 0.00 0.00 0.00 34 1012.6
20240423070048 60 183 1.7 11.3 0.00 0.00 0.00 34 1012.5
20240423065547 60 227 2.6 10.4 0.00 0.00 0.00 34 1012.6
20240423065047 59 261 7.0 7.8 0.00 0.00 0.00 35 1012.6
20240423064545 56 276 2.6 2.6 0.00 0.00 0.00 39 1012.4
20240423064044 57 192 1.7 4.3 0.00 0.00 0.00 39 1012.5
20240423063543 57 192 3.5 4.3 0.00 0.00 0.00 39 1012.2
20240423063043 57 248 2.6 4.3 0.00 0.00 0.00 39 1012.2
20240423062542 56 206 0.9 4.3 0.00 0.00 0.00 40 1012.2
20240423062042 55 198 2.6 4.3 0.00 0.00 0.00 42 1012.0
20240423061540 55 228 1.7 4.3 0.00 0.00 0.00 42 1012.0
20240423061038 55 208 1.7 3.5 0.00 0.00 0.00 41 1012.3
20240423060537 56 216 1.7 5.2 0.00 0.00 0.00 41 1012.0
20240423060037 55 203 0.9 4.3 0.00 0.00 0.00 43 1012.0
20240423055536 55 197 1.7 3.5 0.00 0.00 0.00 42 1012.0
20240423055035 55 229 2.6 2.6 0.00 0.00 0.00 43 1012.2
20240423054534 55 155 2.6 4.3 0.00 0.00 0.00 42 1011.9
20240423054033 55 300 0.0 0.9 0.00 0.00 0.00 43 1011.7
20240423053531 57 218 1.7 2.6 0.00 0.00 0.00 41 1011.7
20240423053031 57 90 0.0 0.0 0.00 0.00 0.00 39 1011.6
20240423052529 59 320 1.7 3.5 0.00 0.00 0.00 38 1011.8
20240423052029 56 24 1.7 3.5 0.00 0.00 0.00 41 1011.7
20240423051528 57 29 0.0 0.9 0.00 0.00 0.00 40 1011.5
20240423051027 57 183 2.6 3.5 0.00 0.00 0.00 39 1011.6
20240423050525 58 186 2.6 7.0 0.00 0.00 0.00 38 1011.5
20240423050024 57 187 1.7 5.2 0.00 0.00 0.00 39 1011.2
20240423045522 57 201 1.7 5.2 0.00 0.00 0.00 39 1011.6
20240423045021 59 151 1.7 4.3 0.00 0.00 0.00 38 1011.3
20240423044520 59 229 2.6 2.6 0.00 0.00 0.00 36 1011.3
20240423044020 60 222 2.6 2.6 0.00 0.00 0.00 36 1011.7
20240423043518 60 255 3.5 4.3 0.00 0.00 0.00 34 1011.6
20240423043016 62 235 2.6 6.1 0.00 0.00 0.00 33 1011.7
20240423042514 60 191 2.6 5.2 0.00 0.00 0.00 36 1011.6
20240423042014 60 187 1.7 4.3 0.00 0.00 0.00 36 1011.5
20240423041513 60 195 2.6 4.3 0.00 0.00 0.00 35 1011.6
20240423041013 60 198 1.7 4.3 0.00 0.00 0.00 36 1011.6
20240423040511 59 180 1.7 2.6 0.00 0.00 0.00 37 1011.6
20240423040010 60 168 0.0 2.6 0.00 0.00 0.00 36 1011.9
20240423035508 60 180 0.0 3.5 0.00 0.00 0.00 35 1011.3
20240423035007 61 240 2.6 5.2 0.00 0.00 0.00 33 1011.3
20240423034506 61 231 3.5 3.5 0.00 0.00 0.00 33 1011.6
20240423034004 61 240 0.0 2.6 0.00 0.00 0.00 34 1011.7
20240423033503 61 197 2.6 3.5 0.00 0.00 0.00 34 1011.6
20240423033002 60 229 0.0 1.7 0.00 0.00 0.00 35 1011.5
20240423032502 60 259 1.7 1.7 0.00 0.00 0.00 35 1011.6
20240423032001 61 246 0.0 2.6 0.00 0.00 0.00 34 1011.5
20240423031500 61 260 1.7 1.7 0.00 0.00 0.00 34 1011.1
20240423030959 62 261 0.0 1.7 0.00 0.00 0.00 33 1011.2
20240423030457 62 117 0.9 1.7 0.00 0.00 0.00 33 1011.1
20240423025955 63 180 0.0 1.7 0.00 0.00 0.00 32 1011.1
20240423025454 63 254 1.7 1.7 0.00 0.00 0.00 31 1011.2
20240423024953 64 270 1.7 2.6 0.00 0.00 0.00 30 1011.1
20240423024451 64 276 2.6 5.2 0.00 0.00 0.00 30 1011.2
20240423023950 65 291 0.9 3.5 0.00 0.00 0.00 30 1011.1
20240423023449 65 292 1.7 7.0 0.00 0.00 0.00 30 1011.1
20240423022947 65 231 2.6 2.6 0.00 0.00 0.00 30 1011.0
20240423022445 66 274 2.6 5.2 0.00 0.00 0.00 29 1011.2
20240423021943 65 253 3.5 7.8 0.00 0.00 0.00 30 1011.0
20240423021442 66 200 3.5 7.8 0.00 0.00 0.00 29 1011.0
20240423020940 66 242 5.2 7.8 0.00 0.00 0.00 29 1011.0
20240423020439 65 262 8.7 13.0 0.00 0.00 0.00 30 1011.1
20240423015937 65 247 1.7 7.0 0.00 0.00 0.00 30 1010.9
20240423015436 66 246 6.1 6.1 0.00 0.00 0.00 30 1010.9
20240423014935 66 351 1.7 7.8 0.00 0.00 0.00 29 1010.9
20240423014434 66 272 7.8 17.4 0.00 0.00 0.00 29 1011.0
20240423013933 67 245 5.2 17.4 0.00 0.00 0.00 29 1011.0
20240423013432 67 234 7.8 17.4 0.00 0.00 0.00 28 1011.2
20240423012930 68 289 1.7 12.2 0.00 0.00 0.00 26 1011.0
20240423012428 68 208 4.3 22.6 0.00 0.00 0.00 25 1011.2
20240423011928 68 262 5.2 20.0 0.00 0.00 0.00 25 1011.0
20240423011427 69 264 7.8 17.4 0.00 0.00 0.00 25 1010.7
20240423010926 69 270 8.7 20.9 0.00 0.00 0.00 24 1011.0
20240423010425 69 282 4.3 12.2 0.00 0.00 0.00 25 1010.9
20240423005923 70 259 2.6 14.8 0.00 0.00 0.00 24 1010.7
20240423005423 70 278 11.3 20.9 0.00 0.00 0.00 23 1010.6
20240423004921 71 292 2.6 16.5 0.00 0.00 0.00 23 1010.4
20240423004420 72 264 2.6 7.0 0.00 0.00 0.00 23 1010.5
20240423003920 72 257 7.0 8.7 0.00 0.00 0.00 23 1010.2
20240423003419 72 273 3.5 7.0 0.00 0.00 0.00 23 1010.2
20240423002918 72 292 3.5 13.9 0.00 0.00 0.00 23 1010.2
20240423002417 73 287 9.6 20.0 0.00 0.00 0.00 22 1010.2
20240423001917 74 232 9.6 15.6 0.00 0.00 0.00 22 1010.3